User: anonymous   Login
Location: Champseau
(45.8333°N, 1.7667°E)
Time: 15:55:10
(UTC+00:00)
Language:

DX 1 - Orbit

View from above orbital plane
View from above orbital plane
View from above satellite
View from above satellite

Ground track
Ground track

The orbit data is extracted from the following two-line orbital elements,

1 40071U 14037C   21332.09577942  .00000221  00000-0  35625-4 0  9991
2 40071  98.4320 185.5091 0007268 240.3460 119.7032 14.81584567399521
Epoch (UTC): 28 November 2021 02:17:55
Eccentricity: 0.0007268
inclination: 98.4320°
perigee height: 619 km
apogee height: 629 km
right ascension of ascending node: 185.5091°
argument of perigee: 240.3460°
revolutions per day: 14.81584567
mean anomaly at epoch: 119.7032°
orbit number at epoch: 39952

The dashed part of the orbit path shows where the satellite is in the earth's shadow,  

DLR